AIB001 LFBO-LFPG

Flight info

Callsign AIB001
Flight time N/A
Altitude 34000
Route FISTO DCT POI/N0400F300 DCT PEPAX UT182 KEPER
Aircraft A343/H-SDE2E3FGHIJ4J5M1RWXY/LB1D1

Departure

Time 2026-05-05 14:10
Airport Toulouse-Blagnac Airport (LFBO)

Arrival

Time N/A
Airport Charles de Gaulle International Airport (LFPG)
Time Latitude Longitude Altitude Speed Heading
2026-05-05 13:52 43.63366 1.35028 487 ft 0 kts 233°
2026-05-05 14:02 43.63372 1.35041 487 ft 4 kts 233°
2026-05-05 14:02 43.63388 1.35070 487 ft 4 kts 233°
2026-05-05 14:02 43.63401 1.35094 487 ft 4 kts 227°
2026-05-05 14:03 43.63419 1.35111 487 ft 4 kts 181°
2026-05-05 14:03 43.63442 1.35102 487 ft 3 kts 143°
2026-05-05 14:03 43.63461 1.35082 487 ft 2 kts 143°
2026-05-05 14:03 43.63462 1.35081 487 ft 3 kts 143°
2026-05-05 14:05 43.63455 1.35088 487 ft 3 kts 143°
2026-05-05 14:05 43.63442 1.35101 487 ft 6 kts 143°
2026-05-05 14:06 43.63373 1.35173 490 ft 17 kts 143°
2026-05-05 14:06 43.63273 1.35277 489 ft 20 kts 143°
2026-05-05 14:06 43.63157 1.35398 489 ft 22 kts 143°
2026-05-05 14:06 43.63030 1.35484 489 ft 18 kts 172°
2026-05-05 14:07 43.62970 1.35583 489 ft 13 kts 93°
2026-05-05 14:07 43.62967 1.35759 493 ft 28 kts 111°
2026-05-05 14:07 43.62821 1.35935 487 ft 31 kts 142°
2026-05-05 14:07 43.62647 1.36116 490 ft 32 kts 143°
2026-05-05 14:08 43.62466 1.36305 487 ft 33 kts 142°
2026-05-05 14:08 43.62279 1.36499 491 ft 34 kts 143°
2026-05-05 14:08 43.62085 1.36698 487 ft 35 kts 143°
2026-05-05 14:08 43.61902 1.36891 493 ft 36 kts 141°
2026-05-05 14:09 43.61878 1.37129 489 ft 27 kts 34°
2026-05-05 14:09 43.62016 1.37083 487 ft 21 kts 319°
2026-05-05 14:09 43.62135 1.36968 488 ft 21 kts 320°
2026-05-05 14:09 43.62295 1.36796 489 ft 47 kts 323°
2026-05-05 14:10 43.62750 1.36325 489 ft 116 kts 322°
2026-05-05 14:10 43.63541 1.35494 601 ft 162 kts 322°
2026-05-05 14:10 43.64455 1.34573 1384 ft 166 kts 322°
2026-05-05 14:10 43.65447 1.33602 1911 ft 199 kts 323°
2026-05-05 14:11 43.66683 1.32313 2533 ft 235 kts 321°
2026-05-05 14:11 43.67971 1.30935 3838 ft 235 kts 320°
2026-05-05 14:11 43.69283 1.29541 5110 ft 243 kts 320°
2026-05-05 14:11 43.70656 1.28098 6295 ft 253 kts 320°
2026-05-05 14:12 43.72182 1.26790 7352 ft 265 kts 334°
2026-05-05 14:12 43.73983 1.26033 8440 ft 275 kts 343°
2026-05-05 14:12 43.75874 1.25428 9495 ft 283 kts 345°
2026-05-05 14:12 43.77868 1.25018 10418 ft 297 kts 354°
2026-05-05 14:13 43.80017 1.24901 10971 ft 322 kts 356°
2026-05-05 14:13 43.82328 1.24841 11670 ft 341 kts 357°
2026-05-05 14:13 43.84739 1.24782 12536 ft 352 kts 357°
2026-05-05 14:13 43.87229 1.24713 13412 ft 361 kts 357°
2026-05-05 14:14 43.88897 1.24664 14018 ft 366 kts 356°
2026-05-05 14:14 43.92348 1.24557 15181 ft 374 kts 356°
2026-05-05 14:14 43.94931 1.24473 16007 ft 380 kts 356°
2026-05-05 14:14 43.97602 1.24384 16858 ft 386 kts 356°
2026-05-05 14:15 44.00303 1.24294 17702 ft 391 kts 356°
2026-05-05 14:15 44.03045 1.24200 18504 ft 397 kts 357°
2026-05-05 14:15 44.05819 1.24106 19287 ft 401 kts 357°
2026-05-05 14:15 44.08627 1.24011 20034 ft 406 kts 357°
2026-05-05 14:16 44.10544 1.23946 20540 ft 409 kts 357°
2026-05-05 14:16 44.13357 1.23849 21256 ft 414 kts 357°
2026-05-05 14:16 44.16263 1.23750 21982 ft 419 kts 357°
2026-05-05 14:16 44.19189 1.23650 22668 ft 423 kts 357°
2026-05-05 14:17 44.22145 1.23549 23372 ft 428 kts 357°
2026-05-05 14:17 44.25155 1.23450 23963 ft 433 kts 357°
2026-05-05 14:17 44.28171 1.23346 24511 ft 437 kts 356°
2026-05-05 14:17 44.31209 1.23239 25068 ft 440 kts 356°
2026-05-05 14:18 44.34313 1.23131 25622 ft 444 kts 356°
2026-05-05 14:18 44.37413 1.23024 26155 ft 448 kts 356°
2026-05-05 14:18 44.40536 1.22916 26681 ft 451 kts 356°
2026-05-05 14:18 44.43694 1.22792 27212 ft 454 kts 355°
2026-05-05 14:19 44.46797 1.22295 27741 ft 454 kts 346°
2026-05-05 14:19 44.49915 1.21230 28254 ft 456 kts 342°
2026-05-05 14:19 44.52932 1.20019 28719 ft 459 kts 340°
2026-05-05 14:19 44.56007 1.18701 29188 ft 462 kts 339°
2026-05-05 14:20 44.63586 1.15384 30229 ft 471 kts 340°
2026-05-05 14:20 44.76269 1.09953 31669 ft 482 kts 340°
2026-05-05 14:20 44.89072 1.04497 33640 ft 478 kts 340°
2026-05-05 14:20 45.01762 0.99057 33917 ft 470 kts 340°
2026-05-05 14:21 45.26689 0.88283 33939 ft 467 kts 341°
2026-05-05 14:21 45.51582 0.77430 33922 ft 469 kts 341°
2026-05-05 14:22 45.75970 0.66700 33914 ft 469 kts 341°
2026-05-05 14:22 46.01301 0.55451 33882 ft 471 kts 342°
2026-05-05 14:23 46.26353 0.44217 33862 ft 471 kts 342°
2026-05-05 14:23 46.43502 0.36464 33857 ft 471 kts 343°
2026-05-05 14:24 46.49750 0.33629 33853 ft 470 kts 343°
2026-05-05 14:24 46.56016 0.31127 33856 ft 470 kts 352°
2026-05-05 14:25 46.62493 0.31232 33854 ft 464 kts 11°
2026-05-05 14:25 46.68844 0.32981 33856 ft 463 kts 13°
2026-05-05 14:26 46.75143 0.34968 33849 ft 463 kts 14°
2026-05-05 14:26 46.81445 0.36963 33854 ft 463 kts 13°
2026-05-05 14:27 46.87684 0.38905 33851 ft 463 kts 13°
2026-05-05 14:27 46.93995 0.40857 33837 ft 463 kts 13°